This demonstration page uses our WeatherBlox Daily Observations layout. Learn more.

Left ArrowRight Arrow

36.19886, -115.1175

Hourly Observations for August 30, 2017

Temp ( °F °C ) Dew Point ( °F °C ) Humidity (%) Winds ( mph kmh ) Pressure ( in mb ) Visibility ( mi km ) Precip ( " mm )
12:53 am 00:53 Clear 91 32.8 46 7.8 21 21 N N/A 29.82 1010 10 16 N/A
1:53 am 01:53 Clear 88 31.1 48 8.9 25 25 WNW 8 13 29.81 1010 10 16 N/A
2:53 am 02:53 Clear 86 30 47 8.3 26 26 NNW 6 9 29.80 1009 10 16 N/A
3:53 am 03:53 Clear 86 30 44 6.7 23 23 NNE 7 11 29.82 1010 10 16 N/A
4:53 am 04:53 Clear 88 31.1 43 6.1 21 21 N N/A 29.82 1010 10 16 N/A
5:53 am 05:53 Clear 84 28.9 45 7.2 25 25 WNW 7 11 29.84 1011 10 16 N/A
6:53 am 06:53 Sunny 87 30.6 44 6.7 22 22 NNW 8 13 29.85 1011 10 16 N/A
7:53 am 07:53 Sunny 92 33.3 43 6.1 18 18 NNW 12 19 29.86 1011 10 16 N/A
8:53 am 08:53 Sunny 94 34.4 43 6.1 17 17 N 9 15 29.87 1011 10 16 N/A
9:53 am 09:53 Sunny 96 35.6 45 7.2 17 17 NE 6 9 29.88 1012 10 16 N/A
10:53 am 10:53 Sunny 101 38.3 42 5.6 13 13 undefined N/A 29.87 1011 10 16 N/A
11:53 am 11:53 Sunny 104 40 42 5.6 12 12 N 20 31 29.85 1011 10 16 N/A
12:53 pm 12:53 Sunny 104 40 42 5.6 12 12 NNW 20 31 29.82 1010 10 16 N/A
1:53 pm 13:53 Sunny 105 40.6 44 6.7 13 13 NNW 23 37 29.79 1009 10 16 N/A
2:53 pm 14:53 Sunny 105 40.6 44 6.7 13 13 NNW 18 30 29.78 1008 10 16 N/A
3:53 pm 15:53 Sunny 99 37.2 48 8.9 18 18 WSW 22 35 29.80 1009 10 16 N/A
4:00 pm 16:00 Sunny 99 37.2 48 8.9 18 18 WSW 20 31 29.62 1003 10 16 N/A
4:36 pm 16:36 Sunny with Nearby Thunderstorms 98 36.7 49 9.4 19 19 W 15 24 29.62 1003 10 16 N/A
4:50 pm 16:50 Sunny with Thunderstorms 99 37 48 9 18 18 W 16 26 29.62 1003 10 16 N/A
4:53 pm 16:53 Sunny with Thunderstorms 98 36.7 47 8.3 17 17 W 15 24 29.78 1009 10 16 N/A
5:05 pm 17:05 Sunny 98 36.7 45 7.2 16 16 W 16 26 29.62 1003 10 16 N/A
5:53 pm 17:53 Sunny 100 37.8 41 5 13 13 W 7 11 29.77 1008 10 16 N/A
6:53 pm 18:53 Sunny 100 37.8 42 5.6 14 14 N 7 11 29.77 1008 10 16 N/A
7:53 pm 19:53 Clear 93 33.9 50 10 23 23 NNW 29 46 29.80 1009 10 16 N/A
8:53 pm 20:53 Mostly Clear 91 32.8 48 8.9 23 23 NW 36 57 29.81 1010 10 16 N/A
9:53 pm 21:53 Clear 91 32.8 47 8.3 22 22 NW 29 46 29.85 1011 10 16 N/A
10:53 pm 22:53 Mostly Cloudy with Light Rain 87 30.6 54 12.2 32 32 NNW 10 17 29.93 1013 10 16 N/A
11:53 pm 23:53 Clear 87 30.6 49 9.4 27 27 N 18 30 29.90 1012 10 16 N/A

Powered by AerisWeather